owner,sensor,date,latitude,longitude,air_pressure(mBar),qcFlag 
TABS,ioos:station:wmo:42044:1,2002-08-01T00:09:00Z,26.1914,-97.0507,1015.0,11111222 
TABS,ioos:station:wmo:42044:1,2002-08-01T00:39:00Z,26.1914,-97.0507,1015.12,11111222 
TABS,ioos:station:wmo:42044:1,2002-08-01T01:39:00Z,26.1914,-97.0507,1015.31,11111222 
TABS,ioos:station:wmo:42044:1,2002-08-01T02:09:00Z,26.1914,-97.0507,1015.38,11111222 
TABS,ioos:station:wmo:42044:1,2002-08-01T05:39:00Z,26.1914,-97.0507,1016.14,11111222 
TABS,ioos:station:wmo:42044:1,2002-08-01T07:39:00Z,26.1914,-97.0507,1015.12,11111222 
TABS,ioos:station:wmo:42044:1,2002-08-01T08:09:00Z,26.1914,-97.0507,1014.8,11111222 
TABS,ioos:station:wmo:42044:1,2002-08-01T10:09:00Z,26.1914,-97.0507,1014.3,11111222 
TABS,ioos:station:wmo:42044:1,2002-08-01T11:09:00Z,26.1914,-97.0507,1014.74,11111222 
TABS,ioos:station:wmo:42044:1,2002-08-01T11:39:00Z,26.1914,-97.0507,1014.8,11111222 
TABS,ioos:station:wmo:42044:1,2002-08-01T12:39:00Z,26.1914,-97.0507,1015.0,11111222 
TABS,ioos:station:wmo:42044:1,2002-08-01T15:39:00Z,26.1914,-97.0507,1015.5,11111222 
TABS,ioos:station:wmo:42044:1,2002-08-01T16:09:00Z,26.1914,-97.0507,1015.5,11111222 
TABS,ioos:station:wmo:42044:1,2002-08-01T16:39:00Z,26.1914,-97.0507,1015.5,11111222 
TABS,ioos:station:wmo:42044:1,2002-08-01T17:09:00Z,26.1914,-97.0507,1015.44,11111222 
TABS,ioos:station:wmo:42044:1,2002-08-01T18:39:00Z,26.1914,-97.0507,1014.93,11111222 
TABS,ioos:station:wmo:42044:1,2002-08-01T19:09:00Z,26.1914,-97.0507,1014.74,11111222 
TABS,ioos:station:wmo:42044:1,2002-08-01T19:39:00Z,26.1914,-97.0507,1014.55,11111222 
TABS,ioos:station:wmo:42044:1,2002-08-01T22:09:00Z,26.1914,-97.0507,1013.66,11111222 
TABS,ioos:station:wmo:42044:1,2002-08-01T23:39:00Z,26.1914,-97.0507,1013.09,11111222 
TABS,ioos:station:wmo:42044:1,2002-08-02T00:39:00Z,26.1914,-97.0507,1012.9,11111222 
TABS,ioos:station:wmo:42044:1,2002-08-02T01:39:00Z,26.1914,-97.0507,1012.9,11111222 
TABS,ioos:station:wmo:42044:1,2002-08-02T03:39:00Z,26.1914,-97.0507,1013.41,11111222 
TABS,ioos:station:wmo:42044:1,2002-08-02T04:39:00Z,26.1914,-97.0507,1013.6,11111222 
TABS,ioos:station:wmo:42044:1,2002-08-02T05:09:00Z,26.1914,-97.0507,1013.98,11111222 
TABS,ioos:station:wmo:42044:1,2002-08-02T05:39:00Z,26.1914,-97.0507,1014.36,11111222 
TABS,ioos:station:wmo:42044:1,2002-08-02T08:09:00Z,26.1914,-97.0507,1013.79,11111222 
TABS,ioos:station:wmo:42044:1,2002-08-02T11:09:00Z,26.1914,-97.0507,1014.23,11111222 
TABS,ioos:station:wmo:42044:1,2002-08-02T13:39:00Z,26.1914,-97.0507,1015.31,11111222 
TABS,ioos:station:wmo:42044:1,2002-08-02T16:09:00Z,26.1914,-97.0507,1016.07,11111222 
TABS,ioos:station:wmo:42044:1,2002-08-02T18:39:00Z,26.1914,-97.0507,1015.44,11111222 
TABS,ioos:station:wmo:42044:1,2002-08-02T20:09:00Z,26.1914,-97.0507,1015.38,11111222 
TABS,ioos:station:wmo:42044:1,2002-08-02T23:39:00Z,26.1914,-97.0507,1014.04,11111222 
TABS,ioos:station:wmo:42044:1,2002-08-03T00:09:00Z,26.1914,-97.0507,1013.85,11111222 
TABS,ioos:station:wmo:42044:1,2002-08-03T00:39:00Z,26.1914,-97.0507,1013.92,11111222 
TABS,ioos:station:wmo:42044:1,2002-08-03T01:39:00Z,26.1914,-97.0507,1014.3,11111222 
TABS,ioos:station:wmo:42044:1,2002-08-03T03:09:00Z,26.1914,-97.0507,1015.0,11111222 
TABS,ioos:station:wmo:42044:1,2002-08-03T05:39:00Z,26.1914,-97.0507,1015.69,11111222 
TABS,ioos:station:wmo:42044:1,2002-08-03T10:09:00Z,26.1914,-97.0507,1014.8,11111222 
TABS,ioos:station:wmo:42044:1,2002-08-03T10:39:00Z,26.1914,-97.0507,1014.74,11111222 
TABS,ioos:station:wmo:42044:1,2002-08-03T11:09:00Z,26.1914,-97.0507,1014.93,11111222 
TABS,ioos:station:wmo:42044:1,2002-08-03T12:39:00Z,26.1914,-97.0507,1016.33,11111222 
TABS,ioos:station:wmo:42044:1,2002-08-03T13:09:00Z,26.1914,-97.0507,1016.65,11111222 
TABS,ioos:station:wmo:42044:1,2002-08-03T14:09:00Z,26.1914,-97.0507,1017.41,11111222 
TABS,ioos:station:wmo:42044:1,2002-08-03T15:09:00Z,26.1914,-97.0507,1017.6,11111222 
TABS,ioos:station:wmo:42044:1,2002-08-03T15:39:00Z,26.1914,-97.0507,1017.53,11111222 
TABS,ioos:station:wmo:42044:1,2002-08-03T18:09:00Z,26.1914,-97.0507,1017.41,11111222 
TABS,ioos:station:wmo:42044:1,2002-08-03T19:09:00Z,26.1914,-97.0507,1016.77,11111222 
TABS,ioos:station:wmo:42044:1,2002-08-03T19:39:00Z,26.1914,-97.0507,1016.58,11111222 
TABS,ioos:station:wmo:42044:1,2002-08-03T21:09:00Z,26.1914,-97.0507,1015.57,11111222 
TABS,ioos:station:wmo:42044:1,2002-08-03T22:09:00Z,26.1914,-97.0507,1015.12,11111222 
TABS,ioos:station:wmo:42044:1,2002-08-03T23:09:00Z,26.1914,-97.0507,1014.93,11111222 
TABS,ioos:station:wmo:42044:1,2002-08-03T23:39:00Z,26.1914,-97.0507,1015.12,11111222 
TABS,ioos:station:wmo:42044:1,2002-08-04T01:39:00Z,26.1914,-97.0507,1015.0,11111222 
TABS,ioos:station:wmo:42044:1,2002-08-04T02:39:00Z,26.1914,-97.0507,1015.25,11111222 
TABS,ioos:station:wmo:42044:1,2002-08-04T03:39:00Z,26.1914,-97.0507,1016.01,11111222 
TABS,ioos:station:wmo:42044:1,2002-08-04T05:09:00Z,26.1914,-97.0507,1016.07,11111222 
TABS,ioos:station:wmo:42044:1,2002-08-04T05:39:00Z,26.1914,-97.0507,1016.07,11111222 
TABS,ioos:station:wmo:42044:1,2002-08-04T06:39:00Z,26.1914,-97.0507,1015.5,11111222 
TABS,ioos:station:wmo:42044:1,2002-08-04T07:09:00Z,26.1914,-97.0507,1015.12,11111222 
TABS,ioos:station:wmo:42044:1,2002-08-04T07:39:00Z,26.1914,-97.0507,1014.93,11111222 
TABS,ioos:station:wmo:42044:1,2002-08-04T08:39:00Z,26.1914,-97.0507,1014.93,11111222 
TABS,ioos:station:wmo:42044:1,2002-08-04T10:09:00Z,26.1914,-97.0507,1014.68,11111222 
TABS,ioos:station:wmo:42044:1,2002-08-04T11:09:00Z,26.1914,-97.0507,1015.0,11111222 
TABS,ioos:station:wmo:42044:1,2002-08-04T12:39:00Z,26.1914,-97.0507,1015.95,11111222 
TABS,ioos:station:wmo:42044:1,2002-08-04T13:39:00Z,26.1914,-97.0507,1016.52,11111222 
TABS,ioos:station:wmo:42044:1,2002-08-04T15:09:00Z,26.1914,-97.0507,1017.34,11111222 
TABS,ioos:station:wmo:42044:1,2002-08-04T15:39:00Z,26.1914,-97.0507,1017.41,11111222 
TABS,ioos:station:wmo:42044:1,2002-08-04T16:39:00Z,26.1914,-97.0507,1017.6,11111222 
TABS,ioos:station:wmo:42044:1,2002-08-04T17:09:00Z,26.1914,-97.0507,1017.41,11111222 
TABS,ioos:station:wmo:42044:1,2002-08-04T18:39:00Z,26.1914,-97.0507,1016.65,11111222 
TABS,ioos:station:wmo:42044:1,2002-08-04T19:09:00Z,26.1914,-97.0507,1016.39,11111222 
TABS,ioos:station:wmo:42044:1,2002-08-04T21:39:00Z,26.1914,-97.0507,1014.93,11111222 
TABS,ioos:station:wmo:42044:1,2002-08-04T22:39:00Z,26.1914,-97.0507,1014.87,11111222 
TABS,ioos:station:wmo:42044:1,2002-08-04T23:09:00Z,26.1914,-97.0507,1014.68,11111222 
TABS,ioos:station:wmo:42044:1,2002-08-04T23:39:00Z,26.1914,-97.0507,1014.55,11111222 
TABS,ioos:station:wmo:42044:1,2002-08-05T00:39:00Z,26.1914,-97.0507,1014.42,11111222 
TABS,ioos:station:wmo:42044:1,2002-08-05T01:09:00Z,26.1914,-97.0507,1014.55,11111222 
TABS,ioos:station:wmo:42044:1,2002-08-05T02:09:00Z,26.1914,-97.0507,1014.61,11111222 
TABS,ioos:station:wmo:42044:1,2002-08-05T03:09:00Z,26.1914,-97.0507,1014.36,11111222 
TABS,ioos:station:wmo:42044:1,2002-08-05T03:39:00Z,26.1914,-97.0507,1014.04,11111222 
TABS,ioos:station:wmo:42044:1,2002-08-05T04:09:00Z,26.1914,-97.0507,1014.23,11111222 
TABS,ioos:station:wmo:42044:1,2002-08-05T04:39:00Z,26.1914,-97.0507,1013.79,11111222 
TABS,ioos:station:wmo:42044:1,2002-08-05T05:09:00Z,26.1914,-97.0507,1013.28,11111222 
TABS,ioos:station:wmo:42044:1,2002-08-05T05:39:00Z,26.1914,-97.0507,1012.96,11111222 
TABS,ioos:station:wmo:42044:1,2002-08-05T06:09:00Z,26.1914,-97.0507,1012.58,11111222 
TABS,ioos:station:wmo:42044:1,2002-08-05T06:39:00Z,26.1914,-97.0507,1012.39,11111222 
TABS,ioos:station:wmo:42044:1,2002-08-05T07:39:00Z,26.1914,-97.0507,1012.39,11111222 
TABS,ioos:station:wmo:42044:1,2002-08-05T08:39:00Z,26.1914,-97.0507,1011.57,11111222 
TABS,ioos:station:wmo:42044:1,2002-08-05T09:09:00Z,26.1914,-97.0507,1011.88,11111222 
TABS,ioos:station:wmo:42044:1,2002-08-05T10:09:00Z,26.1914,-97.0507,1011.5,11111222 
TABS,ioos:station:wmo:42044:1,2002-08-05T11:09:00Z,26.1914,-97.0507,1011.95,11111222 
TABS,ioos:station:wmo:42044:1,2002-08-05T12:09:00Z,26.1914,-97.0507,1011.76,11111222 
TABS,ioos:station:wmo:42044:1,2002-08-05T12:39:00Z,26.1914,-97.0507,1012.84,11111222 
TABS,ioos:station:wmo:42044:1,2002-08-05T13:09:00Z,26.1914,-97.0507,1014.68,11111222 
TABS,ioos:station:wmo:42044:1,2002-08-05T14:39:00Z,26.1914,-97.0507,1016.58,11111222 
TABS,ioos:station:wmo:42044:1,2002-08-05T15:09:00Z,26.1914,-97.0507,1016.9,11111222 
TABS,ioos:station:wmo:42044:1,2002-08-05T17:39:00Z,26.1914,-97.0507,1016.71,11111222 
TABS,ioos:station:wmo:42044:1,2002-08-05T18:39:00Z,26.1914,-97.0507,1016.46,11111222 
TABS,ioos:station:wmo:42044:1,2002-08-05T19:09:00Z,26.1914,-97.0507,1016.07,11111222 
TABS,ioos:station:wmo:42044:1,2002-08-05T19:39:00Z,26.1914,-97.0507,1015.88,11111222 
TABS,ioos:station:wmo:42044:1,2002-08-05T20:09:00Z,26.1914,-97.0507,1015.5,11111222 
TABS,ioos:station:wmo:42044:1,2002-08-05T21:09:00Z,26.1914,-97.0507,1015.0,11111222 
TABS,ioos:station:wmo:42044:1,2002-08-05T22:39:00Z,26.1914,-97.0507,1014.55,11111222 
TABS,ioos:station:wmo:42044:1,2002-08-05T23:09:00Z,26.1914,-97.0507,1014.11,11111222 
TABS,ioos:station:wmo:42044:1,2002-08-05T23:39:00Z,26.1914,-97.0507,1013.92,11111222 
TABS,ioos:station:wmo:42044:1,2002-08-06T00:09:00Z,26.1914,-97.0507,1013.79,11111222 
TABS,ioos:station:wmo:42044:1,2002-08-06T00:39:00Z,26.1914,-97.0507,1014.04,11111222 
TABS,ioos:station:wmo:42044:1,2002-08-06T01:39:00Z,26.1914,-97.0507,1014.23,11111222 
TABS,ioos:station:wmo:42044:1,2002-08-06T02:09:00Z,26.1914,-97.0507,1014.42,11111222 
TABS,ioos:station:wmo:42044:1,2002-08-06T03:09:00Z,26.1914,-97.0507,1014.55,11111222 
TABS,ioos:station:wmo:42044:1,2002-08-06T05:09:00Z,26.1914,-97.0507,1014.23,11111222 
TABS,ioos:station:wmo:42044:1,2002-08-06T05:39:00Z,26.1914,-97.0507,1014.04,11111222 
TABS,ioos:station:wmo:42044:1,2002-08-06T06:09:00Z,26.1914,-97.0507,1013.6,11111222 
TABS,ioos:station:wmo:42044:1,2002-08-06T06:39:00Z,26.1914,-97.0507,1013.28,11111222 
TABS,ioos:station:wmo:42044:1,2002-08-06T07:39:00Z,26.1914,-97.0507,1012.71,11111222 
TABS,ioos:station:wmo:42044:1,2002-08-06T08:39:00Z,26.1914,-97.0507,1012.46,11111222 
TABS,ioos:station:wmo:42044:1,2002-08-06T10:09:00Z,26.1914,-97.0507,1012.52,11111222 
TABS,ioos:station:wmo:42044:1,2002-08-06T10:39:00Z,26.1914,-97.0507,1012.39,11111222 
TABS,ioos:station:wmo:42044:1,2002-08-06T11:09:00Z,26.1914,-97.0507,1012.33,11111222 
TABS,ioos:station:wmo:42044:1,2002-08-06T11:39:00Z,26.1914,-97.0507,1012.27,11111222 
TABS,ioos:station:wmo:42044:1,2002-08-06T12:39:00Z,26.1914,-97.0507,1013.09,11111222 
TABS,ioos:station:wmo:42044:1,2002-08-06T13:09:00Z,26.1914,-97.0507,1015.25,11111222 
TABS,ioos:station:wmo:42044:1,2002-08-06T13:39:00Z,26.1914,-97.0507,1015.69,11111222 
TABS,ioos:station:wmo:42044:1,2002-08-06T16:09:00Z,26.1914,-97.0507,1016.52,11111222 
TABS,ioos:station:wmo:42044:1,2002-08-06T17:09:00Z,26.1914,-97.0507,1016.26,11111222 
TABS,ioos:station:wmo:42044:1,2002-08-06T17:39:00Z,26.1914,-97.0507,1016.07,11111222 
TABS,ioos:station:wmo:42044:1,2002-08-06T18:39:00Z,26.1914,-97.0507,1015.57,11111222 
TABS,ioos:station:wmo:42044:1,2002-08-06T19:09:00Z,26.1914,-97.0507,1015.44,11111222 
TABS,ioos:station:wmo:42044:1,2002-08-06T19:39:00Z,26.1914,-97.0507,1015.0,11111222 
TABS,ioos:station:wmo:42044:1,2002-08-06T20:09:00Z,26.1914,-97.0507,1014.49,11111222 
TABS,ioos:station:wmo:42044:1,2002-08-06T20:39:00Z,26.1914,-97.0507,1014.04,11111222 
TABS,ioos:station:wmo:42044:1,2002-08-06T21:09:00Z,26.1914,-97.0507,1013.79,11111222 
TABS,ioos:station:wmo:42044:1,2002-08-06T22:09:00Z,26.1914,-97.0507,1013.41,11111222 
TABS,ioos:station:wmo:42044:1,2002-08-07T00:39:00Z,26.1914,-97.0507,1013.22,11111222 
TABS,ioos:station:wmo:42044:1,2002-08-07T01:09:00Z,26.1914,-97.0507,1013.34,11111222 
TABS,ioos:station:wmo:42044:1,2002-08-07T02:09:00Z,26.1914,-97.0507,1014.04,11111222 
TABS,ioos:station:wmo:42044:1,2002-08-07T03:09:00Z,26.1914,-97.0507,1014.49,11111222 
TABS,ioos:station:wmo:42044:1,2002-08-07T06:09:00Z,26.1914,-97.0507,1014.23,11111222 
TABS,ioos:station:wmo:42044:1,2002-08-07T08:39:00Z,26.1914,-97.0507,1012.33,11111222 
TABS,ioos:station:wmo:42044:1,2002-08-07T10:09:00Z,26.1914,-97.0507,1011.88,11111222 
TABS,ioos:station:wmo:42044:1,2002-08-07T12:09:00Z,26.1914,-97.0507,1012.33,11111222 
TABS,ioos:station:wmo:42044:1,2002-08-07T13:39:00Z,26.1914,-97.0507,1015.31,11111222 
TABS,ioos:station:wmo:42044:1,2002-08-07T15:09:00Z,26.1914,-97.0507,1015.82,11111222 
TABS,ioos:station:wmo:42044:1,2002-08-07T15:39:00Z,26.1914,-97.0507,1015.69,11111222 
TABS,ioos:station:wmo:42044:1,2002-08-07T16:09:00Z,26.1914,-97.0507,1015.76,11111222 
TABS,ioos:station:wmo:42044:1,2002-08-07T16:39:00Z,26.1914,-97.0507,1015.63,11111222 
TABS,ioos:station:wmo:42044:1,2002-08-07T17:09:00Z,26.1914,-97.0507,1015.76,11111222 
TABS,ioos:station:wmo:42044:1,2002-08-07T18:39:00Z,26.1914,-97.0507,1015.31,11111222 
TABS,ioos:station:wmo:42044:1,2002-08-07T19:09:00Z,26.1914,-97.0507,1015.12,11111222 
TABS,ioos:station:wmo:42044:1,2002-08-07T19:39:00Z,26.1914,-97.0507,1014.68,11111222 
TABS,ioos:station:wmo:42044:1,2002-08-07T20:39:00Z,26.1914,-97.0507,1013.92,11111222 
TABS,ioos:station:wmo:42044:1,2002-08-07T22:09:00Z,26.1914,-97.0507,1013.22,11111222 
TABS,ioos:station:wmo:42044:1,2002-08-07T22:39:00Z,26.1914,-97.0507,1012.9,11111222 
TABS,ioos:station:wmo:42044:1,2002-08-08T00:39:00Z,26.1914,-97.0507,1012.9,11111222 
TABS,ioos:station:wmo:42044:1,2002-08-08T01:39:00Z,26.1914,-97.0507,1013.03,11111222 
TABS,ioos:station:wmo:42044:1,2002-08-08T04:09:00Z,26.1914,-97.0507,1014.49,11111222 
TABS,ioos:station:wmo:42044:1,2002-08-08T05:09:00Z,26.1914,-97.0507,1014.36,11111222 
TABS,ioos:station:wmo:42044:1,2002-08-08T05:39:00Z,26.1914,-97.0507,1014.17,11111222 
TABS,ioos:station:wmo:42044:1,2002-08-08T06:09:00Z,26.1914,-97.0507,1013.85,11111222 
TABS,ioos:station:wmo:42044:1,2002-08-08T06:39:00Z,26.1914,-97.0507,1013.54,11111222 
TABS,ioos:station:wmo:42044:1,2002-08-08T07:39:00Z,26.1914,-97.0507,1013.09,11111222 
TABS,ioos:station:wmo:42044:1,2002-08-08T09:09:00Z,26.1914,-97.0507,1012.14,11111222 
TABS,ioos:station:wmo:42044:1,2002-08-08T09:39:00Z,26.1914,-97.0507,1012.01,11111222 
TABS,ioos:station:wmo:42044:1,2002-08-08T10:09:00Z,26.1914,-97.0507,1011.69,11111222 
TABS,ioos:station:wmo:42044:1,2002-08-08T11:09:00Z,26.1914,-97.0507,1011.44,11111222 
TABS,ioos:station:wmo:42044:1,2002-08-08T11:39:00Z,26.1914,-97.0507,1011.5,11111222 
TABS,ioos:station:wmo:42044:1,2002-08-08T12:09:00Z,26.1914,-97.0507,1011.95,11111222 
TABS,ioos:station:wmo:42044:1,2002-08-08T15:09:00Z,26.1914,-97.0507,1014.8,11111222 
TABS,ioos:station:wmo:42044:1,2002-08-08T15:39:00Z,26.1914,-97.0507,1015.57,11111222 
TABS,ioos:station:wmo:42044:1,2002-08-08T16:09:00Z,26.1914,-97.0507,1015.63,11111222 
TABS,ioos:station:wmo:42044:1,2002-08-08T17:09:00Z,26.1914,-97.0507,1015.31,11111222 
TABS,ioos:station:wmo:42044:1,2002-08-08T18:39:00Z,26.1914,-97.0507,1014.61,11111222 
TABS,ioos:station:wmo:42044:1,2002-08-08T19:09:00Z,26.1914,-97.0507,1014.36,11111222 
TABS,ioos:station:wmo:42044:1,2002-08-08T20:09:00Z,26.1914,-97.0507,1014.23,11111222 
TABS,ioos:station:wmo:42044:1,2002-08-08T20:39:00Z,26.1914,-97.0507,1013.79,11111222 
TABS,ioos:station:wmo:42044:1,2002-08-08T22:39:00Z,26.1914,-97.0507,1013.28,11111222 
TABS,ioos:station:wmo:42044:1,2002-08-09T01:39:00Z,26.1914,-97.0507,1013.22,11111222 
TABS,ioos:station:wmo:42044:1,2002-08-09T03:39:00Z,26.1914,-97.0507,1011.95,11111222 
TABS,ioos:station:wmo:42044:1,2002-08-09T05:09:00Z,26.1914,-97.0507,1011.19,11111222 
TABS,ioos:station:wmo:42044:1,2002-08-09T05:39:00Z,26.1914,-97.0507,1010.62,11111222 
TABS,ioos:station:wmo:42044:1,2002-08-09T09:09:00Z,26.1914,-97.0507,1008.77,11111222 
TABS,ioos:station:wmo:42044:1,2002-08-09T09:39:00Z,26.1914,-97.0507,1008.84,11111222 
TABS,ioos:station:wmo:42044:1,2002-08-09T10:09:00Z,26.1914,-97.0507,1008.52,11111222 
TABS,ioos:station:wmo:42044:1,2002-08-09T10:39:00Z,26.1914,-97.0507,1008.58,11111222 
TABS,ioos:station:wmo:42044:1,2002-08-09T11:09:00Z,26.1914,-97.0507,1008.71,11111222 
TABS,ioos:station:wmo:42044:1,2002-08-09T11:39:00Z,26.1914,-97.0507,1008.77,11111222 
TABS,ioos:station:wmo:42044:1,2002-08-09T12:09:00Z,26.1914,-97.0507,1008.71,11111222 
TABS,ioos:station:wmo:42044:1,2002-08-09T13:09:00Z,26.1914,-97.0507,1008.96,11111222 
TABS,ioos:station:wmo:42044:1,2002-08-09T13:39:00Z,26.1914,-97.0507,1009.28,11111222 
TABS,ioos:station:wmo:42044:1,2002-08-09T15:09:00Z,26.1914,-97.0507,1012.9,11111222 
TABS,ioos:station:wmo:42044:1,2002-08-09T17:09:00Z,26.1914,-97.0507,1013.73,11111222 
TABS,ioos:station:wmo:42044:1,2002-08-09T17:39:00Z,26.1914,-97.0507,1013.09,11111222 
TABS,ioos:station:wmo:42044:1,2002-08-09T18:09:00Z,26.1914,-97.0507,1012.52,11111222 
TABS,ioos:station:wmo:42044:1,2002-08-09T18:39:00Z,26.1914,-97.0507,1011.82,11111222 
TABS,ioos:station:wmo:42044:1,2002-08-09T19:09:00Z,26.1914,-97.0507,1011.69,11111222 
TABS,ioos:station:wmo:42044:1,2002-08-09T20:39:00Z,26.1914,-97.0507,1010.87,11111222 
TABS,ioos:station:wmo:42044:1,2002-08-09T21:39:00Z,26.1914,-97.0507,1011.69,11111222 
TABS,ioos:station:wmo:42044:1,2002-08-09T22:39:00Z,26.1914,-97.0507,1012.2,11111222 
TABS,ioos:station:wmo:42044:1,2002-08-09T23:39:00Z,26.1914,-97.0507,1012.39,11111222 
TABS,ioos:station:wmo:42044:1,2002-08-10T01:39:00Z,26.1914,-97.0507,1009.47,11111222 
TABS,ioos:station:wmo:42044:1,2002-08-10T03:09:00Z,26.1914,-97.0507,1008.33,11111222 
TABS,ioos:station:wmo:42044:1,2002-08-10T03:39:00Z,26.1914,-97.0507,1008.08,11111222 
TABS,ioos:station:wmo:42044:1,2002-08-10T04:39:00Z,26.1914,-97.0507,1006.87,11111222 
TABS,ioos:station:wmo:42044:1,2002-08-10T06:39:00Z,26.1914,-97.0507,995.38,11111222 
TABS,ioos:station:wmo:42044:1,2002-08-10T08:09:00Z,26.1914,-97.0507,1002.81,11111222 
TABS,ioos:station:wmo:42044:1,2002-08-10T08:39:00Z,26.1914,-97.0507,1003.7,11111222 
TABS,ioos:station:wmo:42044:1,2002-08-10T09:09:00Z,26.1914,-97.0507,1004.9,11111222 
TABS,ioos:station:wmo:42044:1,2002-08-10T09:39:00Z,26.1914,-97.0507,1005.09,11111222 
TABS,ioos:station:wmo:42044:1,2002-08-10T10:09:00Z,26.1914,-97.0507,1005.79,11111222 
TABS,ioos:station:wmo:42044:1,2002-08-10T10:39:00Z,26.1914,-97.0507,1006.87,11111222 
TABS,ioos:station:wmo:42044:1,2002-08-10T13:39:00Z,26.1914,-97.0507,1008.84,11111222 
TABS,ioos:station:wmo:42044:1,2002-08-10T14:39:00Z,26.1914,-97.0507,1011.19,11111222 
TABS,ioos:station:wmo:42044:1,2002-08-10T15:09:00Z,26.1914,-97.0507,1012.65,11111222 
TABS,ioos:station:wmo:42044:1,2002-08-10T16:09:00Z,26.1914,-97.0507,1012.2,11111222 
TABS,ioos:station:wmo:42044:1,2002-08-10T17:39:00Z,26.1914,-97.0507,1010.62,11111222 
TABS,ioos:station:wmo:42044:1,2002-08-10T18:39:00Z,26.1914,-97.0507,1008.01,11111222 
TABS,ioos:station:wmo:42044:1,2002-08-10T20:09:00Z,26.1914,-97.0507,1008.9,11111222 
TABS,ioos:station:wmo:42044:1,2002-08-10T20:39:00Z,26.1914,-97.0507,1009.47,11111222 
TABS,ioos:station:wmo:42044:1,2002-08-10T23:09:00Z,26.1914,-97.0507,1012.52,11111222 
TABS,ioos:station:wmo:42044:1,2002-08-10T23:39:00Z,26.1914,-97.0507,1012.39,11111222 
TABS,ioos:station:wmo:42044:1,2002-08-11T00:09:00Z,26.1914,-97.0507,1012.2,11111222 
TABS,ioos:station:wmo:42044:1,2002-08-11T00:39:00Z,26.1914,-97.0507,1010.81,11111222 
TABS,ioos:station:wmo:42044:1,2002-08-11T01:09:00Z,26.1914,-97.0507,1008.14,11111222 
TABS,ioos:station:wmo:42044:1,2002-08-11T01:39:00Z,26.1914,-97.0507,1006.04,11111222 
TABS,ioos:station:wmo:42044:1,2002-08-11T03:09:00Z,26.1914,-97.0507,1003.57,11111222 
TABS,ioos:station:wmo:42044:1,2002-08-11T03:39:00Z,26.1914,-97.0507,1007.95,11111222 
TABS,ioos:station:wmo:42044:1,2002-08-11T05:09:00Z,26.1914,-97.0507,1011.57,11111222 
TABS,ioos:station:wmo:42044:1,2002-08-11T05:39:00Z,26.1914,-97.0507,1012.39,11111222 
TABS,ioos:station:wmo:42044:1,2002-08-11T07:09:00Z,26.1914,-97.0507,1013.09,11111222 
TABS,ioos:station:wmo:42044:1,2002-08-11T08:09:00Z,26.1914,-97.0507,1013.03,11111222 
TABS,ioos:station:wmo:42044:1,2002-08-11T08:39:00Z,26.1914,-97.0507,1013.22,11111222 
TABS,ioos:station:wmo:42044:1,2002-08-11T11:09:00Z,26.1914,-97.0507,1013.09,11111222 
TABS,ioos:station:wmo:42044:1,2002-08-11T12:09:00Z,26.1914,-97.0507,1012.27,11111222 
TABS,ioos:station:wmo:42044:1,2002-08-11T12:39:00Z,26.1914,-97.0507,1000.01,11111222 
TABS,ioos:station:wmo:42044:1,2002-08-11T13:09:00Z,26.1914,-97.0507,1007.31,11111222 
TABS,ioos:station:wmo:42044:1,2002-08-11T13:39:00Z,26.1914,-97.0507,1010.42,11111222 
TABS,ioos:station:wmo:42044:1,2002-08-11T14:09:00Z,26.1914,-97.0507,1012.52,11111222 
TABS,ioos:station:wmo:42044:1,2002-08-11T14:39:00Z,26.1914,-97.0507,1011.88,11111222 
TABS,ioos:station:wmo:42044:1,2002-08-11T15:09:00Z,26.1914,-97.0507,1013.34,11111222 
TABS,ioos:station:wmo:42044:1,2002-08-11T17:09:00Z,26.1914,-97.0507,1012.84,11111222 
TABS,ioos:station:wmo:42044:1,2002-08-11T19:09:00Z,26.1914,-97.0507,1011.31,11111222 
TABS,ioos:station:wmo:42044:1,2002-08-11T20:39:00Z,26.1914,-97.0507,1010.55,11111222 
TABS,ioos:station:wmo:42044:1,2002-08-11T22:39:00Z,26.1914,-97.0507,1012.58,11111222 
TABS,ioos:station:wmo:42044:1,2002-08-12T01:09:00Z,26.1914,-97.0507,1006.17,11111222 
TABS,ioos:station:wmo:42044:1,2002-08-12T01:39:00Z,26.1914,-97.0507,996.46,11111222 
TABS,ioos:station:wmo:42044:1,2002-08-12T03:09:00Z,26.1914,-97.0507,1010.74,11111222 
TABS,ioos:station:wmo:42044:1,2002-08-12T04:39:00Z,26.1914,-97.0507,1013.34,11111222 
TABS,ioos:station:wmo:42044:1,2002-08-12T05:39:00Z,26.1914,-97.0507,1013.47,11111222 
TABS,ioos:station:wmo:42044:1,2002-08-12T07:09:00Z,26.1914,-97.0507,1012.2,11111222 
TABS,ioos:station:wmo:42044:1,2002-08-12T07:39:00Z,26.1914,-97.0507,1011.76,11111222 
TABS,ioos:station:wmo:42044:1,2002-08-12T08:09:00Z,26.1914,-97.0507,1011.25,11111222 
TABS,ioos:station:wmo:42044:1,2002-08-12T08:39:00Z,26.1914,-97.0507,1010.81,11111222 
TABS,ioos:station:wmo:42044:1,2002-08-12T09:09:00Z,26.1914,-97.0507,1010.11,11111222 
TABS,ioos:station:wmo:42044:1,2002-08-12T09:39:00Z,26.1914,-97.0507,1009.98,11111222 
TABS,ioos:station:wmo:42044:1,2002-08-12T10:09:00Z,26.1914,-97.0507,1009.73,11111222 
TABS,ioos:station:wmo:42044:1,2002-08-12T10:39:00Z,26.1914,-97.0507,1009.22,11111222 
TABS,ioos:station:wmo:42044:1,2002-08-12T11:09:00Z,26.1914,-97.0507,1008.14,11111222 
TABS,ioos:station:wmo:42044:1,2002-08-12T11:39:00Z,26.1914,-97.0507,1008.08,11111222 
TABS,ioos:station:wmo:42044:1,2002-08-12T13:09:00Z,26.1914,-97.0507,1011.69,11111222 
TABS,ioos:station:wmo:42044:1,2002-08-12T13:39:00Z,26.1914,-97.0507,1010.36,11111222 
TABS,ioos:station:wmo:42044:1,2002-08-12T15:39:00Z,26.1914,-97.0507,1013.28,11111222 
TABS,ioos:station:wmo:42044:1,2002-08-12T17:09:00Z,26.1914,-97.0507,1011.76,11111222 
TABS,ioos:station:wmo:42044:1,2002-08-12T18:09:00Z,26.1914,-97.0507,1009.79,11111222 
TABS,ioos:station:wmo:42044:1,2002-08-12T18:39:00Z,26.1914,-97.0507,1008.77,11111222 
TABS,ioos:station:wmo:42044:1,2002-08-12T20:39:00Z,26.1914,-97.0507,1010.11,11111222 
TABS,ioos:station:wmo:42044:1,2002-08-12T21:39:00Z,26.1914,-97.0507,1007.7,11111222 
TABS,ioos:station:wmo:42044:1,2002-08-12T22:39:00Z,26.1914,-97.0507,1006.17,11111222 
TABS,ioos:station:wmo:42044:1,2002-08-13T03:39:00Z,26.1914,-97.0507,1013.15,11111222 
TABS,ioos:station:wmo:42044:1,2002-08-13T04:39:00Z,26.1914,-97.0507,1014.04,11111222 
TABS,ioos:station:wmo:42044:1,2002-08-13T05:39:00Z,26.1914,-97.0507,1013.15,11111222 
TABS,ioos:station:wmo:42044:1,2002-08-13T06:09:00Z,26.1914,-97.0507,1012.2,11111222 
TABS,ioos:station:wmo:42044:1,2002-08-13T06:39:00Z,26.1914,-97.0507,1011.82,11111222 
TABS,ioos:station:wmo:42044:1,2002-08-13T07:39:00Z,26.1914,-97.0507,1011.0,11111222 
TABS,ioos:station:wmo:42044:1,2002-08-13T08:09:00Z,26.1914,-97.0507,1010.62,11111222 
TABS,ioos:station:wmo:42044:1,2002-08-13T10:39:00Z,26.1914,-97.0507,1008.84,11111222 
TABS,ioos:station:wmo:42044:1,2002-08-13T11:09:00Z,26.1914,-97.0507,1008.2,11111222 
TABS,ioos:station:wmo:42044:1,2002-08-13T11:39:00Z,26.1914,-97.0507,1007.76,11111222 